Tracking 22100 objects as of 19-Jan-2021
HD Live streaming from Space Station
objects crossing your sky now

STARLINK-1516

Track STARLINK-1516 now!
10-day predictions
STARLINK-1516 is classified as:


NORAD ID: 45749
Int'l Code: 2020-038V
Perigee: 296.8 km
Apogee: 307.1 km
Inclination: 53.0 °
Period: 90.4 minutes
Semi major axis: 6672 km
RCS: Unknown
Launch date: June 13, 2020
Source: United States (US)
Launch site: AIR FORCE EASTERN TEST RANGE (AFETR)
aabbcc
Your satellite tracking list
Your tracking list is empty




NASA's NSSDC Master Catalog

Two Line Element Set (TLE):
1 45749U 20038V   21018.74119592  .00072810  13170-4  21590-3 0  9996
2 45749  52.9892 286.7258 0007757 268.5693  91.4444 15.92678004 34712
Source of the keplerian elements: AFSPC